When you browse on this site, cookies collect data to enhance your experience and personalize the content and advertising you see.
Visit our Privacy Policy to learn more. By continuing to use the site, you agree to this use of cookies and data.
EN

Hourly Weather London

Today, 11 July, Saturday

Time Temperature Precipitation Wind Pressure Humidity
00:00 +12°C° 0 mm 3 mps 766 mmHg 73%
01:00 +11°C° 0 mm 3 mps 766 mmHg 75%
02:00 +11°C° 0 mm 3 mps 766 mmHg 77%
03:00 +10°C° 0 mm 3 mps 766 mmHg 79%
04:00 +11°C° 0 mm 3 mps 766 mmHg 79%
05:00 +12°C° 0 mm 3 mps 766 mmHg 78%
06:00 +12°C° 0 mm 3 mps 767 mmHg 78%
07:00 +14°C° 0 mm 4 mps 767 mmHg 72%
08:00 +15°C° 0 mm 4 mps 768 mmHg 66%
09:00 +17°C° 0 mm 4 mps 768 mmHg 60%
10:00 +18°C° 0 mm 4 mps 768 mmHg 58%
11:00 +18°C° 0 mm 4 mps 768 mmHg 55%
12:00 +19°C° 0 mm 3 mps 769 mmHg 54%
13:00 +19°C° 0.1 mm 3 mps 769 mmHg 53%
14:00 +19°C° 0.1 mm 3 mps 769 mmHg 53%
15:00 +20°C° 0.1 mm 3 mps 768 mmHg 52%
16:00 +19°C° 0 mm 3 mps 768 mmHg 54%
17:00 +19°C° 0 mm 3 mps 769 mmHg 56%
18:00 +19°C° 0 mm 3 mps 769 mmHg 58%
19:00 +18°C° 0 mm 2 mps 769 mmHg 62%
20:00 +16°C° 0 mm 2 mps 769 mmHg 66%
21:00 +15°C° 0 mm 1 mps 769 mmHg 70%
22:00 +15°C° 0 mm 1 mps 769 mmHg 73%
23:00 +14°C° 0 mm 1 mps 769 mmHg 75%

Tomorrow, 12 July, Sunday

Time Temperature Precipitation Wind Pressure Humidity
00:00 +13°C° 0 mm 1 mps 770 mmHg 78%
01:00 +13°C° 0 mm 1 mps 769 mmHg 79%
02:00 +13°C° 0 mm 1 mps 769 mmHg 80%
03:00 +12°C° 0 mm 1 mps 769 mmHg 80%
04:00 +13°C° 0 mm 1 mps 769 mmHg 78%
05:00 +14°C° 0 mm 1 mps 769 mmHg 75%
06:00 +14°C° 0 mm 1 mps 769 mmHg 73%
07:00 +16°C° 0 mm 1 mps 770 mmHg 67%
08:00 +18°C° 0 mm 1 mps 770 mmHg 61%
09:00 +18°C° 0 mm 0 mps 770 mmHg 55%
10:00 +19°C° 0 mm 0 mps 770 mmHg 52%
11:00 +22°C° 0 mm 1 mps 770 mmHg 48%
12:00 +23°C° 0 mm 1 mps 770 mmHg 44%
13:00 +23°C° 0 mm 1 mps 770 mmHg 43%
14:00 +24°C° 0 mm 1 mps 769 mmHg 43%
15:00 +24°C° 0 mm 1 mps 769 mmHg 42%
16:00 +23°C° 0 mm 1 mps 769 mmHg 45%
17:00 +23°C° 0 mm 1 mps 769 mmHg 48%
18:00 +21°C° 0 mm 2 mps 768 mmHg 51%
19:00 +20°C° 0 mm 2 mps 769 mmHg 57%
20:00 +18°C° 0 mm 2 mps 769 mmHg 63%
21:00 +16°C° 0 mm 2 mps 769 mmHg 69%
22:00 +16°C° 0 mm 2 mps 769 mmHg 70%
23:00 +15°C° 0 mm 2 mps 769 mmHg 72%

Day after tomorrow, 13 July, Monday

Time Temperature Precipitation Wind Pressure Humidity
00:00 +15°C° 0 mm 2 mps 768 mmHg 74%
01:00 +14°C° 0 mm 1 mps 768 mmHg 75%
02:00 +14°C° 0 mm 1 mps 768 mmHg 76%
03:00 +14°C° 0 mm 1 mps 768 mmHg 77%
04:00 +14°C° 0 mm 1 mps 768 mmHg 76%
05:00 +15°C° 0 mm 1 mps 767 mmHg 74%
06:00 +15°C° 0 mm 2 mps 767 mmHg 72%
07:00 +17°C° 0 mm 2 mps 767 mmHg 65%
08:00 +19°C° 0 mm 2 mps 767 mmHg 58%
09:00 +20°C° 0 mm 3 mps 767 mmHg 51%
10:00 +21°C° 0 mm 3 mps 766 mmHg 48%
11:00 +22°C° 0 mm 3 mps 766 mmHg 45%
12:00 +23°C° 0 mm 4 mps 766 mmHg 42%
13:00 +23°C° 0 mm 4 mps 766 mmHg 45%
14:00 +23°C° 0 mm 4 mps 765 mmHg 48%
15:00 +23°C° 0 mm 4 mps 765 mmHg 51%
16:00 +22°C° 0 mm 4 mps 765 mmHg 56%
17:00 +21°C° 0 mm 4 mps 764 mmHg 60%
18:00 +20°C° 0 mm 4 mps 764 mmHg 64%
19:00 +20°C° 0 mm 3 mps 764 mmHg 66%
20:00 +19°C° 0 mm 3 mps 764 mmHg 68%
21:00 +18°C° 0 mm 3 mps 763 mmHg 70%
22:00 +18°C° 0.1 mm 3 mps 763 mmHg 73%
23:00 +17°C° 0.1 mm 3 mps 763 mmHg 75%

14 July, Tuesday

Time Temperature Precipitation Wind Pressure Humidity
00:00 +17°C° 0.1 mm 2 mps 762 mmHg 78%
01:00 +17°C° 0.5 mm 2 mps 762 mmHg 82%
02:00 +16°C° 0.5 mm 2 mps 761 mmHg 86%
03:00 +16°C° 0.5 mm 2 mps 761 mmHg 90%
04:00 +16°C° 0.3 mm 2 mps 760 mmHg 91%
05:00 +16°C° 0.3 mm 2 mps 760 mmHg 91%
06:00 +16°C° 0.3 mm 2 mps 760 mmHg 91%
07:00 +17°C° 0.1 mm 2 mps 760 mmHg 91%
08:00 +17°C° 0.1 mm 2 mps 760 mmHg 90%
09:00 +17°C° 0.1 mm 2 mps 760 mmHg 89%
10:00 +18°C° 0.8 mm 2 mps 760 mmHg 87%
11:00 +18°C° 0.8 mm 2 mps 759 mmHg 86%
12:00 +19°C° 0.8 mm 2 mps 759 mmHg 84%
13:00 +18°C° 0.4 mm 3 mps 759 mmHg 82%
14:00 +18°C° 0.4 mm 3 mps 759 mmHg 81%
15:00 +18°C° 0.4 mm 4 mps 759 mmHg 79%
16:00 +18°C° 0.1 mm 4 mps 759 mmHg 76%
17:00 +19°C° 0.1 mm 4 mps 759 mmHg 72%
18:00 +19°C° 0.1 mm 4 mps 759 mmHg 69%
19:00 +18°C° 0 mm 3 mps 759 mmHg 71%
20:00 +17°C° 0 mm 3 mps 759 mmHg 72%
21:00 +14°C° 0 mm 3 mps 759 mmHg 74%
22:00 +14°C° 0 mm 3 mps 760 mmHg 75%
23:00 +13°C° 0 mm 3 mps 760 mmHg 76%

15 July, Wednesday

Time Temperature Precipitation Wind Pressure Humidity
00:00 +12°C° 0 mm 3 mps 760 mmHg 78%
01:00 +12°C° 0 mm 3 mps 760 mmHg 77%
02:00 +13°C° 0 mm 2 mps 759 mmHg 77%
03:00 +13°C° 0 mm 2 mps 759 mmHg 77%
04:00 +13°C° 0 mm 2 mps 759 mmHg 77%
05:00 +14°C° 0 mm 2 mps 759 mmHg 77%
06:00 +14°C° 0 mm 1 mps 759 mmHg 78%
07:00 +14°C° 0 mm 1 mps 760 mmHg 79%
08:00 +14°C° 0 mm 1 mps 760 mmHg 80%
09:00 +14°C° 0 mm 1 mps 760 mmHg 82%
10:00 +15°C° 0 mm 1 mps 760 mmHg 82%
11:00 +15°C° 0 mm 1 mps 760 mmHg 82%
12:00 +16°C° 0 mm 1 mps 761 mmHg 82%
13:00 +16°C° 0 mm 1 mps 761 mmHg 81%
14:00 +18°C° 0 mm 1 mps 761 mmHg 80%
15:00 +17°C° 0 mm 2 mps 761 mmHg 79%
16:00 +17°C° 0 mm 2 mps 761 mmHg 80%
17:00 +17°C° 0 mm 2 mps 761 mmHg 81%
18:00 +17°C° 0 mm 2 mps 761 mmHg 83%
19:00 +17°C° 0 mm 2 mps 761 mmHg 84%
20:00 +16°C° 0 mm 2 mps 762 mmHg 86%
21:00 +16°C° 0 mm 2 mps 762 mmHg 88%
22:00 +16°C° 0 mm 2 mps 762 mmHg 88%
23:00 +16°C° 0 mm 2 mps 762 mmHg 88%

16 July, Thursday

Time Temperature Precipitation Wind Pressure Humidity
00:00 +16°C° 0 mm 2 mps 763 mmHg 89%
01:00 +16°C° 0 mm 2 mps 762 mmHg 89%
02:00 +16°C° 0 mm 2 mps 762 mmHg 89%
03:00 +16°C° 0 mm 2 mps 762 mmHg 89%
04:00 +16°C° 0 mm 2 mps 762 mmHg 89%
05:00 +16°C° 0 mm 2 mps 763 mmHg 88%
06:00 +16°C° 0 mm 3 mps 763 mmHg 88%
07:00 +17°C° 0 mm 3 mps 763 mmHg 84%
08:00 +18°C° 0 mm 3 mps 763 mmHg 80%
09:00 +19°C° 0 mm 3 mps 763 mmHg 77%
10:00 +19°C° 0 mm 3 mps 764 mmHg 74%
11:00 +20°C° 0 mm 3 mps 764 mmHg 72%
12:00 +21°C° 0 mm 3 mps 764 mmHg 69%
13:00 +21°C° 0 mm 4 mps 764 mmHg 67%
14:00 +22°C° 0 mm 4 mps 764 mmHg 65%
15:00 +22°C° 0 mm 4 mps 764 mmHg 64%
16:00 +22°C° 0 mm 3 mps 764 mmHg 64%
17:00 +22°C° 0 mm 3 mps 764 mmHg 65%
18:00 +22°C° 0 mm 3 mps 764 mmHg 65%
19:00 +21°C° 0 mm 2 mps 764 mmHg 70%
20:00 +20°C° 0 mm 2 mps 764 mmHg 74%
21:00 +20°C° 0 mm 1 mps 764 mmHg 78%
22:00 +18°C° 0 mm 2 mps 764 mmHg 80%
23:00 +18°C° 0 mm 2 mps 764 mmHg 81%
Show more